Retour au catalogue

STARLINK-35630

ActifCommunicationsVLEO
NORAD 66131·PAYLOAD·🇺🇸 United States

Lancé Oct 22, 2025 depuis Vandenberg Space Force Base

Loading…

Prochains Passages (prochaines 24 heures)

TLE

FraisSource: CelesTrak SupGP

Époque: Sep 15, 2026, 03:21 UTC

1 66131C 25237T   26258.14006944 -.00039104  00000+0 -11554-2 0  2581
2 66131  53.1579 236.4311 0001309  87.0355 199.5446 15.34407575    10

Suivez STARLINK-35630 en temps réel avec AllMySat

Download on the App Store